"read_dt","SO2 (ppb)","flags","PMT voltage (V)","lamp voltage (V)","lamp intensity (Hz)","internal temp (C)","react chamber temp (C)","sample flow (l/min)","pres (mmHg)","SO2 bkg (ppb)","SO2 coefficient"
2015-04-26 00:00:00,1812E-3,5C000000,-0724,0834,12222,027.0,045.4,0.476,732.2,01.19,0.508
2015-04-26 00:01:00,1881E-3,5C000000,-0724,0833,12171,027.0,045.4,0.475,732.2,01.19,0.508
2015-04-26 00:02:00,1644E-3,5C000000,-0724,0835,12077,027.0,045.4,0.476,732.2,01.19,0.508
2015-04-26 00:03:00,1770E-3,5C000000,-0724,0834,12042,027.0,045.4,0.475,732.2,01.19,0.508
2015-04-26 00:04:00,1842E-3,5C000000,-0724,0834,12259,027.0,045.4,0.476,732.2,01.19,0.508
2015-04-26 00:05:00,1656E-3,5C000000,-0724,0834,12061,027.0,045.4,0.475,732.2,01.19,0.508
2015-04-26 00:06:00,1842E-3,5C000000,-0724,0834,12127,027.0,045.4,0.476,732.2,01.19,0.508
2015-04-26 00:07:00,1797E-3,5C000000,-0724,0833,12122,027.0,045.4,0.475,732.2,01.19,0.508
2015-04-26 00:08:00,1903E-3,5C000000,-0724,0834,12151,027.1,045.4,0.476,732.2,01.19,0.508
2015-04-26 00:09:00,1756E-3,5C000000,-0724,0834,12233,027.1,045.4,0.475,732.2,01.19,0.508
2015-04-26 00:10:00,1886E-3,5C000000,-0724,0834,12190,027.1,045.4,0.476,732.2,01.19,0.508
2015-04-26 00:11:00,1775E-3,5C000000,-0724,0834,12147,027.0,045.4,0.475,732.2,01.19,0.508
2015-04-26 00:12:00,1719E-3,5C000000,-0724,0835,12181,027.0,045.4,0.476,732.2,01.19,0.508
2015-04-26 00:13:00,1828E-3,5C000000,-0724,0833,12109,027.0,045.4,0.475,732.2,01.19,0.508
2015-04-26 00:14:00,1744E-3,5C000000,-0724,0834,12209,026.9,045.4,0.476,732.2,01.19,0.508
2015-04-26 00:15:00,1789E-3,5C000000,-0724,0834,12173,026.8,045.4,0.475,732.2,01.19,0.508
2015-04-26 00:16:00,1883E-3,5C000000,-0724,0833,12222,026.7,045.4,0.475,732.2,01.19,0.508
2015-04-26 00:17:00,1839E-3,5C000000,-0724,0833,12136,026.6,045.4,0.476,732.3,01.19,0.508
2015-04-26 00:18:00,1713E-3,5C000000,-0724,0834,12111,026.4,045.4,0.476,732.3,01.19,0.508
2015-04-26 00:19:00,1629E-3,5C000000,-0724,0834,12326,026.3,045.4,0.476,732.3,01.19,0.508
2015-04-26 00:20:00,1818E-3,5C000000,-0724,0833,12211,026.3,045.4,0.476,732.3,01.19,0.508
2015-04-26 00:21:00,1764E-3,5C000000,-0724,0833,12271,026.2,045.4,0.477,732.3,01.19,0.508
2015-04-26 00:22:00,1778E-3,5C000000,-0724,0833,12220,026.1,045.4,0.477,732.3,01.19,0.508
2015-04-26 00:23:00,1750E-3,5C000000,-0724,0833,12273,026.1,045.4,0.476,732.3,01.19,0.508
2015-04-26 00:24:00,1758E-3,5C000000,-0724,0833,12259,026.0,045.4,0.477,732.3,01.19,0.508
2015-04-26 00:25:00,1705E-3,5C000000,-0724,0833,12214,025.9,045.4,0.477,732.3,01.19,0.508
2015-04-26 00:26:00,1936E-3,5C000000,-0724,0834,12201,025.9,045.4,0.477,732.3,01.19,0.508
2015-04-26 00:27:00,1742E-3,5C000000,-0724,0833,12145,025.9,045.4,0.477,732.3,01.19,0.508
2015-04-26 00:28:00,1835E-3,5C000000,-0724,0833,12061,025.8,045.4,0.477,732.3,01.19,0.508
2015-04-26 00:29:00,1745E-3,5C000000,-0724,0833,12175,025.8,045.4,0.477,732.3,01.19,0.508
2015-04-26 00:30:00,1709E-3,5C000000,-0724,0833,12103,025.8,045.4,0.477,732.3,01.19,0.508
2015-04-26 00:31:00,1809E-3,5C000000,-0724,0833,12203,026.0,045.4,0.477,732.3,01.19,0.508
2015-04-26 00:32:00,1704E-3,5C000000,-0724,0834,12266,026.1,045.4,0.477,732.3,01.19,0.508
2015-04-26 00:33:00,1815E-3,5C000000,-0724,0834,12049,026.1,045.4,0.477,732.3,01.19,0.508
2015-04-26 00:34:00,1797E-3,5C000000,-0724,0834,12207,026.2,045.4,0.477,732.3,01.19,0.508
2015-04-26 00:35:00,1761E-3,5C000000,-0724,0834,12137,026.3,045.4,0.477,732.2,01.19,0.508
2015-04-26 00:36:00,1829E-3,5C000000,-0724,0834,12360,026.4,045.4,0.476,732.2,01.19,0.508
2015-04-26 00:37:00,1805E-3,5C000000,-0724,0833,12268,026.4,045.4,0.477,732.2,01.19,0.508
2015-04-26 00:38:00,1804E-3,5C000000,-0724,0834,12153,026.4,045.4,0.477,732.2,01.19,0.508
2015-04-26 00:39:00,1860E-3,5C000000,-0724,0834,12260,026.5,045.4,0.476,732.2,01.19,0.508
2015-04-26 00:40:00,1709E-3,5C000000,-0724,0833,12164,026.5,045.4,0.476,732.2,01.19,0.508
2015-04-26 00:41:00,1702E-3,5C000000,-0724,0833,12193,026.6,045.4,0.477,732.2,01.19,0.508
2015-04-26 00:42:00,1809E-3,5C000000,-0724,0834,12174,026.6,045.4,0.476,732.2,01.19,0.508
2015-04-26 00:43:00,1727E-3,5C000000,-0724,0834,12314,026.7,045.4,0.476,732.2,01.19,0.508
2015-04-26 00:44:00,1755E-3,5C000000,-0724,0834,12257,026.7,045.4,0.476,732.2,01.19,0.508
2015-04-26 00:45:00,1798E-3,5C000000,-0724,0834,12146,026.7,045.4,0.476,732.1,01.19,0.508
2015-04-26 00:46:00,1703E-3,5C000000,-0724,0834,12259,026.8,045.4,0.476,732.1,01.19,0.508
2015-04-26 00:47:00,1847E-3,5C000000,-0724,0834,12222,026.8,045.4,0.476,732.1,01.19,0.508
2015-04-26 00:48:00,1899E-3,5C000000,-0724,0833,12105,026.9,045.4,0.476,732.1,01.19,0.508
2015-04-26 00:49:00,1677E-3,5C000000,-0724,0834,12121,026.9,045.4,0.475,732.1,01.19,0.508
2015-04-26 00:50:00,1809E-3,5C000000,-0724,0834,12186,026.9,045.4,0.476,732.1,01.19,0.508
2015-04-26 00:51:00,1731E-3,5C000000,-0724,0834,12168,026.9,045.4,0.475,732.1,01.19,0.508
2015-04-26 00:52:00,1924E-3,5C000000,-0724,0834,12154,026.9,045.4,0.476,732.1,01.19,0.508
2015-04-26 00:53:00,1750E-3,5C000000,-0724,0834,12139,026.9,045.4,0.476,732.1,01.19,0.508
2015-04-26 00:54:00,1613E-3,5C000000,-0724,0834,12096,026.9,045.4,0.475,732.1,01.19,0.508
2015-04-26 00:55:00,1792E-3,5C000000,-0724,0833,12150,027.0,045.4,0.476,732.1,01.19,0.508
2015-04-26 00:56:00,1709E-3,5C000000,-0724,0834,12078,027.0,045.4,0.475,732.1,01.19,0.508
2015-04-26 00:57:00,1787E-3,5C000000,-0724,0834,12061,027.0,045.4,0.476,732.1,01.19,0.508
2015-04-26 00:58:00,1789E-3,5C000000,-0724,0833,12240,027.0,045.4,0.475,732.1,01.19,0.508
2015-04-26 00:59:00,1767E-3,5C000000,-0724,0834,12223,027.0,045.4,0.476,732.1,01.19,0.508
2015-04-26 01:00:00,1684E-3,5C000000,-0724,0834,12086,026.9,045.4,0.475,732.1,01.19,0.508
2015-04-26 01:01:00,1736E-3,5C000000,-0724,0834,12158,026.9,045.4,0.476,732.1,01.19,0.508
2015-04-26 01:02:00,1780E-3,5C000000,-0724,0833,12149,026.8,045.4,0.475,732.2,01.19,0.508
2015-04-26 01:03:00,1779E-3,5C000000,-0724,0834,12189,026.6,045.4,0.476,732.2,01.19,0.508
2015-04-26 01:04:00,1737E-3,5C000000,-0724,0833,12150,026.5,045.4,0.476,732.2,01.19,0.508
2015-04-26 01:05:00,1652E-3,5C000000,-0724,0834,12219,026.5,045.4,0.476,732.2,01.19,0.508
2015-04-26 01:06:00,1858E-3,5C000000,-0724,0833,12108,026.4,045.4,0.476,732.2,01.19,0.508
2015-04-26 01:07:00,1704E-3,5C000000,-0724,0834,12130,026.3,045.4,0.476,732.2,01.19,0.508
2015-04-26 01:08:00,1763E-3,5C000000,-0724,0833,12270,026.2,045.4,0.476,732.2,01.19,0.508
2015-04-26 01:09:00,1752E-3,5C000000,-0724,0833,12166,026.2,045.4,0.476,732.2,01.19,0.508
2015-04-26 01:10:00,1839E-3,5C000000,-0724,0834,12130,026.1,045.4,0.477,732.2,01.19,0.508
2015-04-26 01:11:00,1751E-3,5C000000,-0724,0834,12091,026.0,045.4,0.476,732.2,01.19,0.508
2015-04-26 01:12:00,1956E-3,5C000000,-0724,0834,12130,026.0,045.4,0.477,732.2,01.19,0.508
2015-04-26 01:13:00,1827E-3,5C000000,-0724,0833,12066,025.9,045.4,0.476,732.2,01.19,0.508
2015-04-26 01:14:00,1805E-3,5C000000,-0724,0833,11995,025.9,045.4,0.477,732.2,01.19,0.508
2015-04-26 01:15:00,1782E-3,5C000000,-0724,0833,12032,025.8,045.4,0.477,732.2,01.19,0.508
2015-04-26 01:16:00,1877E-3,5C000000,-0724,0833,12201,025.8,045.4,0.477,732.2,01.19,0.508
2015-04-26 01:17:00,1775E-3,5C000000,-0724,0834,12175,025.8,045.4,0.477,732.2,01.19,0.508
2015-04-26 01:18:00,1803E-3,5C000000,-0724,0834,12146,025.7,045.4,0.477,732.2,01.19,0.508
2015-04-26 01:19:00,1767E-3,5C000000,-0724,0833,12142,025.7,045.4,0.477,732.2,01.19,0.508
2015-04-26 01:20:00,1757E-3,5C000000,-0724,0834,12139,025.7,045.4,0.477,732.2,01.19,0.508
2015-04-26 01:21:00,1793E-3,5C000000,-0724,0834,12120,025.7,045.4,0.477,732.2,01.19,0.508
2015-04-26 01:22:00,1626E-3,5C000000,-0724,0834,12052,025.7,045.4,0.477,732.2,01.19,0.508
2015-04-26 01:23:00,1748E-3,5C000000,-0724,0834,12204,025.7,045.4,0.478,732.2,01.19,0.508
2015-04-26 01:24:00,1748E-3,5C000000,-0724,0833,12248,025.8,045.4,0.477,732.2,01.19,0.508
2015-04-26 01:25:00,1775E-3,5C000000,-0724,0833,12316,026.0,045.4,0.477,732.2,01.19,0.508
2015-04-26 01:26:00,1816E-3,5C000000,-0724,0833,12076,026.0,045.4,0.477,732.2,01.19,0.508
2015-04-26 01:27:00,1774E-3,5C000000,-0724,0834,12172,026.1,045.4,0.477,732.2,01.19,0.508
2015-04-26 01:28:00,1742E-3,5C000000,-0724,0833,12135,026.2,045.4,0.477,732.2,01.19,0.508
2015-04-26 01:29:00,1787E-3,5C000000,-0724,0834,12079,026.3,045.4,0.476,732.2,01.19,0.508
2015-04-26 01:30:00,1615E-3,5C000000,-0724,0834,12239,026.4,045.4,0.477,732.2,01.19,0.508
2015-04-26 01:31:00,1842E-3,5C000000,-0724,0834,12190,026.4,045.4,0.477,732.2,01.19,0.508
2015-04-26 01:32:00,1777E-3,5C000000,-0724,0834,12108,026.5,045.4,0.476,732.2,01.19,0.508
2015-04-26 01:33:00,1927E-3,5C000000,-0724,0833,12237,026.5,045.4,0.476,732.2,01.19,0.508
2015-04-26 01:34:00,1813E-3,5C000000,-0724,0834,12308,026.6,045.4,0.476,732.2,01.19,0.508
2015-04-26 01:35:00,1804E-3,5C000000,-0724,0833,12273,026.6,045.4,0.476,732.1,01.19,0.508
2015-04-26 01:36:00,1884E-3,5C000000,-0724,0833,12317,026.7,045.4,0.476,732.1,01.19,0.508
2015-04-26 01:37:00,1700E-3,5C000000,-0724,0834,12232,026.7,045.4,0.476,732.1,01.19,0.508
2015-04-26 01:38:00,1652E-3,5C000000,-0724,0833,12061,026.8,045.4,0.476,732.1,01.19,0.508
2015-04-26 01:39:00,1900E-3,5C000000,-0724,0834,12185,026.8,045.4,0.476,732.1,01.19,0.508
2015-04-26 01:40:00,1818E-3,5C000000,-0724,0834,12205,026.8,045.4,0.475,732.1,01.19,0.508
2015-04-26 01:41:00,1888E-3,5C000000,-0724,0834,12193,026.8,045.4,0.476,732.1,01.19,0.508
2015-04-26 01:42:00,2021E-3,5C000000,-0724,0833,12251,026.7,045.4,0.476,732.1,01.19,0.508
2015-04-26 01:43:00,1748E-3,5C000000,-0724,0834,12196,026.6,045.4,0.476,732.1,01.19,0.508
2015-04-26 01:44:00,1829E-3,5C000000,-0724,0834,12151,026.5,045.4,0.476,732.1,01.19,0.508
2015-04-26 01:45:00,1633E-3,5C000000,-0724,0835,12214,026.4,045.4,0.476,732.1,01.19,0.508
2015-04-26 01:46:00,1838E-3,5C000000,-0724,0832,12073,026.3,045.4,0.476,732.1,01.19,0.508
2015-04-26 01:47:00,1738E-3,5C000000,-0724,0833,12090,026.3,045.4,0.476,732.1,01.19,0.508
2015-04-26 01:48:00,1640E-3,5C000000,-0724,0834,12143,026.2,045.4,0.477,732.1,01.19,0.508
2015-04-26 01:49:00,1913E-3,5C000000,-0724,0834,12133,026.1,045.4,0.476,732.1,01.19,0.508
2015-04-26 01:50:00,1775E-3,5C000000,-0724,0833,12162,026.1,045.4,0.477,732.1,01.19,0.508
2015-04-26 01:51:00,1794E-3,5C000000,-0724,0833,11980,026.0,045.4,0.476,732.1,01.19,0.508
2015-04-26 01:52:00,1742E-3,5C000000,-0724,0833,12276,026.0,045.4,0.477,732.1,01.19,0.508
2015-04-26 01:53:00,1795E-3,5C000000,-0724,0833,12198,025.9,045.4,0.476,732.1,01.19,0.508
2015-04-26 01:54:00,1776E-3,5C000000,-0724,0834,12121,025.9,045.4,0.477,732.1,01.19,0.508
2015-04-26 01:55:00,1895E-3,5C000000,-0724,0833,12065,025.9,045.4,0.477,732.1,01.19,0.508
2015-04-26 01:56:00,1839E-3,5C000000,-0724,0833,12137,025.8,045.4,0.477,732.1,01.19,0.508
2015-04-26 01:57:00,1838E-3,5C000000,-0724,0833,12195,025.8,045.4,0.477,732.2,01.19,0.508
2015-04-26 01:58:00,1794E-3,5C000000,-0724,0833,12243,025.8,045.4,0.477,732.2,01.19,0.508
2015-04-26 01:59:00,1800E-3,5C000000,-0724,0833,12084,025.8,045.4,0.477,732.2,01.19,0.508
2015-04-26 02:00:00,1822E-3,5C000000,-0724,0834,12225,025.7,045.4,0.477,732.2,01.19,0.508
2015-04-26 02:01:00,1660E-3,5C000000,-0724,0833,12221,025.7,045.4,0.477,732.2,01.19,0.508
2015-04-26 02:02:00,1799E-3,5C000000,-0724,0833,12088,025.7,045.4,0.477,732.2,01.19,0.508
2015-04-26 02:03:00,1781E-3,5C000000,-0724,0833,12137,025.7,045.4,0.477,732.2,01.19,0.508
2015-04-26 02:04:00,1846E-3,5C000000,-0724,0833,11897,025.7,045.4,0.477,732.2,01.19,0.508
2015-04-26 02:05:00,1701E-3,5C000000,-0724,0833,12210,025.6,045.4,0.477,732.2,01.19,0.508
2015-04-26 02:06:00,1705E-3,5C000000,-0724,0833,12120,025.6,045.4,0.477,732.2,01.19,0.508
2015-04-26 02:07:00,1883E-3,5C000000,-0724,0834,12150,025.6,045.4,0.477,732.2,01.19,0.508
2015-04-26 02:08:00,1830E-3,5C000000,-0724,0833,12146,025.6,045.4,0.477,732.2,01.19,0.508
2015-04-26 02:09:00,1795E-3,5C000000,-0724,0833,12238,025.6,045.4,0.477,732.2,01.19,0.508
2015-04-26 02:10:00,1797E-3,5C000000,-0724,0833,11979,025.6,045.4,0.478,732.2,01.19,0.508
2015-04-26 02:11:00,1807E-3,5C000000,-0724,0833,12144,025.6,045.4,0.477,732.2,01.19,0.508
2015-04-26 02:12:00,1787E-3,5C000000,-0724,0833,12108,025.5,045.4,0.477,732.2,01.19,0.508
2015-04-26 02:13:00,1866E-3,5C000000,-0724,0834,12193,025.5,045.4,0.478,732.2,01.19,0.508
2015-04-26 02:14:00,1826E-3,5C000000,-0724,0833,12241,025.5,045.4,0.477,732.2,01.19,0.508
2015-04-26 02:15:00,1781E-3,5C000000,-0724,0833,12291,025.5,045.4,0.477,732.2,01.19,0.508
2015-04-26 02:16:00,1702E-3,5C000000,-0724,0833,12158,025.5,045.4,0.478,732.2,01.19,0.508
2015-04-26 02:17:00,1877E-3,5C000000,-0724,0833,12131,025.5,045.4,0.477,732.3,01.19,0.508
2015-04-26 02:18:00,1659E-3,5C000000,-0724,0833,12152,025.5,045.4,0.477,732.2,01.19,0.508
2015-04-26 02:19:00,1723E-3,5C000000,-0724,0833,12188,025.5,045.4,0.478,732.2,01.19,0.508
2015-04-26 02:20:00,1634E-3,5C000000,-0724,0833,12130,025.6,045.4,0.477,732.2,01.19,0.508
2015-04-26 02:21:00,1777E-3,5C000000,-0724,0833,12171,025.6,045.4,0.477,732.2,01.19,0.508
2015-04-26 02:22:00,1732E-3,5C000000,-0724,0834,12119,025.7,045.4,0.478,732.2,01.19,0.508
2015-04-26 02:23:00,1796E-3,5C000000,-0724,0833,12148,025.9,045.4,0.477,732.2,01.19,0.508
2015-04-26 02:24:00,1880E-3,5C000000,-0724,0833,12244,026.0,045.4,0.477,732.2,01.19,0.508
2015-04-26 02:25:00,1675E-3,5C000000,-0724,0834,12115,026.1,045.4,0.477,732.2,01.19,0.508
2015-04-26 02:26:00,1740E-3,5C000000,-0724,0833,12160,026.2,045.4,0.477,732.2,01.19,0.508
2015-04-26 02:27:00,1703E-3,5C000000,-0724,0834,12252,026.3,045.4,0.477,732.2,01.19,0.508
2015-04-26 02:28:00,1845E-3,5C000000,-0724,0835,12255,026.3,045.4,0.476,732.2,01.19,0.508
2015-04-26 02:29:00,1670E-3,5C000000,-0724,0834,12153,026.4,045.4,0.476,732.2,01.19,0.508
2015-04-26 02:30:00,1764E-3,5C000000,-0724,0833,12140,026.5,045.4,0.476,732.2,01.19,0.508
2015-04-26 02:31:00,1706E-3,5C000000,-0724,0833,12123,026.6,045.4,0.476,732.2,01.19,0.508
2015-04-26 02:32:00,1752E-3,5C000000,-0724,0833,12142,026.6,045.4,0.476,732.2,01.19,0.508
2015-04-26 02:33:00,1785E-3,5C000000,-0724,0834,12261,026.6,045.4,0.476,732.2,01.19,0.508
2015-04-26 02:34:00,1779E-3,5C000000,-0724,0833,12135,026.6,045.4,0.476,732.2,01.19,0.508
2015-04-26 02:35:00,1665E-3,5C000000,-0724,0834,12210,026.6,045.4,0.476,732.2,01.19,0.508
2015-04-26 02:36:00,1798E-3,5C000000,-0724,0834,12223,026.6,045.5,0.476,732.2,01.19,0.508
2015-04-26 02:37:00,1689E-3,5C000000,-0724,0834,12057,026.5,045.4,0.476,732.2,01.19,0.508
2015-04-26 02:38:00,1710E-3,5C000000,-0724,0833,12083,026.4,045.4,0.476,732.3,01.19,0.508
2015-04-26 02:39:00,1690E-3,5C000000,-0724,0833,12130,026.3,045.4,0.476,732.2,01.19,0.508
2015-04-26 02:40:00,1726E-3,5C000000,-0724,0834,12276,026.3,045.4,0.477,732.2,01.19,0.508
2015-04-26 02:41:00,1834E-3,5C000000,-0724,0833,12166,026.2,045.4,0.476,732.2,01.19,0.508
2015-04-26 02:42:00,1758E-3,5C000000,-0724,0833,12150,026.2,045.4,0.477,732.2,01.19,0.508
2015-04-26 02:43:00,1800E-3,5C000000,-0724,0833,12079,026.1,045.4,0.476,732.2,01.19,0.508
2015-04-26 02:44:00,1684E-3,5C000000,-0724,0833,12017,026.1,045.4,0.477,732.2,01.19,0.508
2015-04-26 02:45:00,1856E-3,5C000000,-0724,0833,12228,026.0,045.4,0.477,732.2,01.19,0.508
2015-04-26 02:46:00,1898E-3,5C000000,-0724,0832,12085,026.0,045.4,0.477,732.2,01.19,0.508
2015-04-26 02:47:00,1711E-3,5C000000,-0724,0833,12135,025.9,045.4,0.477,732.2,01.19,0.508
2015-04-26 02:48:00,1739E-3,5C000000,-0724,0833,12223,025.9,045.4,0.477,732.2,01.19,0.508
2015-04-26 02:49:00,1735E-3,5C000000,-0724,0832,12209,025.9,045.4,0.476,732.2,01.19,0.508
2015-04-26 02:50:00,1691E-3,5C000000,-0724,0833,12097,025.9,045.4,0.477,732.2,01.19,0.508
2015-04-26 02:51:00,1689E-3,5C000000,-0724,0834,12331,025.9,045.4,0.477,732.2,01.19,0.508
2015-04-26 02:52:00,1781E-3,5C000000,-0724,0833,12124,025.8,045.4,0.477,732.2,01.19,0.508
2015-04-26 02:53:00,1818E-3,5C000000,-0724,0833,12152,025.8,045.4,0.477,732.2,01.19,0.508
2015-04-26 02:54:00,1800E-3,5C000000,-0724,0833,12102,025.8,045.4,0.477,732.2,01.19,0.508
2015-04-26 02:55:00,1807E-3,5C000000,-0724,0832,12238,025.7,045.4,0.477,732.2,01.19,0.508
2015-04-26 02:56:00,1773E-3,5C000000,-0724,0833,12344,025.7,045.4,0.477,732.2,01.19,0.508
2015-04-26 02:57:00,1729E-3,5C000000,-0724,0832,12202,025.7,045.4,0.477,732.2,01.19,0.508
2015-04-26 02:58:00,1937E-3,5C000000,-0724,0834,12148,025.7,045.4,0.477,732.2,01.19,0.508
2015-04-26 02:59:00,1669E-3,5C000000,-0724,0833,12035,025.7,045.4,0.477,732.2,01.19,0.508
2015-04-26 03:00:00,1810E-3,5C000000,-0724,0833,12214,025.6,045.4,0.477,732.2,01.19,0.508
2015-04-26 03:01:00,1777E-3,5C000000,-0724,0833,12012,025.6,045.4,0.477,732.3,01.19,0.508
2015-04-26 03:02:00,1659E-3,5C000000,-0724,0833,12207,025.6,045.4,0.477,732.3,01.19,0.508
2015-04-26 03:03:00,1756E-3,5C000000,-0724,0833,12171,025.6,045.4,0.478,732.3,01.19,0.508
2015-04-26 03:04:00,1712E-3,5C000000,-0724,0832,12162,025.6,045.4,0.477,732.3,01.19,0.508
2015-04-26 03:05:00,1804E-3,5C000000,-0724,0832,12113,025.6,045.4,0.477,732.3,01.19,0.508
2015-04-26 03:06:00,1703E-3,5C000000,-0724,0833,12183,025.6,045.4,0.478,732.3,01.19,0.508
2015-04-26 03:07:00,1926E-3,5C000000,-0724,0833,12260,025.6,045.4,0.477,732.3,01.19,0.508
2015-04-26 03:08:00,1796E-3,5C000000,-0724,0833,12036,025.6,045.4,0.477,732.3,01.19,0.508
2015-04-26 03:09:00,1630E-3,5C000000,-0724,0833,12261,025.6,045.4,0.478,732.3,01.19,0.508
2015-04-26 03:10:00,1807E-3,5C000000,-0724,0834,12505,025.6,045.4,0.477,732.3,01.19,0.508
2015-04-26 03:11:00,1786E-3,5C000000,-0724,0833,12158,025.6,045.4,0.477,732.3,01.19,0.508
2015-04-26 03:12:00,1636E-3,5C000000,-0724,0833,12260,025.6,045.4,0.478,732.3,01.19,0.508
2015-04-26 03:13:00,1748E-3,5C000000,-0724,0833,12137,025.5,045.4,0.477,732.4,01.19,0.508
2015-04-26 03:14:00,1642E-3,5C000000,-0724,0833,12324,025.6,045.4,0.477,732.3,01.19,0.508
2015-04-26 03:15:00,1716E-3,5C000000,-0724,0833,12199,025.5,045.4,0.478,732.3,01.19,0.508
2015-04-26 03:16:00,1787E-3,5C000000,-0724,0833,12091,025.5,045.4,0.477,732.3,01.19,0.508
2015-04-26 03:17:00,2000E-3,5C000000,-0724,0833,11984,025.5,045.3,0.477,732.3,01.19,0.508
2015-04-26 03:18:00,1719E-3,5C000000,-0724,0833,12207,025.5,045.3,0.478,732.3,01.19,0.508
2015-04-26 03:19:00,1672E-3,5C000000,-0724,0833,12168,025.5,045.4,0.477,732.3,01.19,0.508
2015-04-26 03:20:00,1732E-3,5C000000,-0724,0833,12166,025.5,045.4,0.478,732.3,01.19,0.508
2015-04-26 03:21:00,1838E-3,5C000000,-0724,0834,12312,025.5,045.4,0.477,732.3,01.19,0.508
2015-04-26 03:22:00,1824E-3,5C000000,-0724,0833,12238,025.5,045.4,0.477,732.4,01.19,0.508
2015-04-26 03:23:00,1621E-3,5C000000,-0724,0833,11979,025.5,045.4,0.478,732.3,01.19,0.508
2015-04-26 03:24:00,1740E-3,5C000000,-0724,0834,12191,025.5,045.4,0.477,732.3,01.19,0.508
2015-04-26 03:25:00,1757E-3,5C000000,-0724,0833,12214,025.5,045.4,0.477,732.3,01.19,0.508
2015-04-26 03:26:00,1770E-3,5C000000,-0724,0834,12068,025.5,045.4,0.478,732.3,01.19,0.508
2015-04-26 03:27:00,1766E-3,5C000000,-0724,0834,12171,025.5,045.4,0.477,732.3,01.19,0.508
2015-04-26 03:28:00,1645E-3,5C000000,-0724,0834,12172,025.5,045.4,0.477,732.3,01.19,0.508
2015-04-26 03:29:00,1790E-3,5C000000,-0724,0833,12029,025.5,045.4,0.478,732.3,01.19,0.508
2015-04-26 03:30:00,1739E-3,5C000000,-0724,0834,12161,025.5,045.4,0.477,732.3,01.19,0.508
2015-04-26 03:31:00,1774E-3,5C000000,-0724,0833,12048,025.5,045.4,0.478,732.3,01.19,0.508
2015-04-26 03:32:00,1750E-3,5C000000,-0724,0833,12092,025.5,045.4,0.478,732.3,01.19,0.508
2015-04-26 03:33:00,1774E-3,5C000000,-0724,0833,12171,025.5,045.4,0.477,732.3,01.19,0.508
2015-04-26 03:34:00,1693E-3,5C000000,-0724,0833,12190,025.5,045.4,0.478,732.3,01.19,0.508
2015-04-26 03:35:00,1774E-3,5C000000,-0724,0833,12261,025.5,045.4,0.477,732.3,01.19,0.508
2015-04-26 03:36:00,1667E-3,5C000000,-0724,0833,12187,025.5,045.4,0.477,732.3,01.19,0.508
2015-04-26 03:37:00,1723E-3,5C000000,-0724,0833,12035,025.5,045.4,0.478,732.3,01.19,0.508
2015-04-26 03:38:00,1840E-3,5C000000,-0724,0833,12000,025.5,045.4,0.477,732.3,01.19,0.508
2015-04-26 03:39:00,1729E-3,5C000000,-0724,0834,12201,025.5,045.4,0.478,732.3,01.19,0.508
2015-04-26 03:40:00,1719E-3,5C000000,-0724,0833,12308,025.5,045.4,0.478,732.3,01.19,0.508
2015-04-26 03:41:00,1760E-3,5C000000,-0724,0833,12178,025.5,045.4,0.477,732.3,01.19,0.508
2015-04-26 03:42:00,1821E-3,5C000000,-0724,0833,12303,025.5,045.4,0.478,732.4,01.19,0.508
2015-04-26 03:43:00,1689E-3,5C000000,-0724,0833,11994,025.5,045.4,0.478,732.3,01.19,0.508
2015-04-26 03:44:00,1795E-3,5C000000,-0724,0833,12199,025.5,045.4,0.477,732.3,01.19,0.508
2015-04-26 03:45:00,1775E-3,5C000000,-0724,0833,12098,025.5,045.4,0.478,732.3,01.19,0.508
2015-04-26 03:46:00,1729E-3,5C000000,-0724,0833,12249,025.5,045.4,0.477,732.3,01.19,0.508
2015-04-26 03:47:00,1850E-3,5C000000,-0724,0833,12130,025.5,045.4,0.477,732.3,01.19,0.508
2015-04-26 03:48:00,1849E-3,5C000000,-0724,0833,12239,025.5,045.4,0.478,732.3,01.19,0.508
2015-04-26 03:49:00,1844E-3,5C000000,-0724,0834,12059,025.5,045.4,0.477,732.3,01.19,0.508
2015-04-26 03:50:00,1745E-3,5C000000,-0724,0834,12028,025.5,045.4,0.477,732.3,01.19,0.508
2015-04-26 03:51:00,1820E-3,5C000000,-0724,0834,12079,025.5,045.4,0.478,732.3,01.19,0.508
2015-04-26 03:52:00,1766E-3,5C000000,-0724,0833,12192,025.5,045.4,0.477,732.3,01.19,0.508
2015-04-26 03:53:00,1803E-3,5C000000,-0724,0833,11969,025.5,045.4,0.478,732.3,01.19,0.508
2015-04-26 03:54:00,1732E-3,5C000000,-0724,0833,12125,025.5,045.4,0.477,732.3,01.19,0.508
2015-04-26 03:55:00,1676E-3,5C000000,-0724,0834,12269,025.5,045.4,0.477,732.3,01.19,0.508
2015-04-26 03:56:00,1770E-3,5C000000,-0724,0834,12259,025.5,045.4,0.478,732.3,01.19,0.508
2015-04-26 03:57:00,1795E-3,5C000000,-0724,0833,12245,025.5,045.4,0.477,732.3,01.19,0.508
2015-04-26 03:58:00,1816E-3,5C000000,-0724,0833,12293,025.5,045.4,0.477,732.3,01.19,0.508
2015-04-26 03:59:00,1752E-3,5C000000,-0724,0834,12305,025.5,045.4,0.478,732.3,01.19,0.508
2015-04-26 04:00:00,1819E-3,5C000000,-0724,0834,12076,025.5,045.4,0.477,732.3,01.19,0.508
2015-04-26 04:01:00,1817E-3,5C000000,-0724,0833,12190,025.5,045.4,0.477,732.3,01.19,0.508
2015-04-26 04:02:00,1716E-3,5C000000,-0724,0835,12136,025.5,045.4,0.478,732.3,01.19,0.508
2015-04-26 04:03:00,1804E-3,5C000000,-0724,0834,12156,025.5,045.4,0.477,732.3,01.19,0.508
2015-04-26 04:04:00,1858E-3,5C000000,-0724,0833,11964,025.5,045.4,0.477,732.3,01.19,0.508
2015-04-26 04:05:00,1823E-3,5C000000,-0724,0834,12112,025.5,045.4,0.478,732.3,01.19,0.508
2015-04-26 04:06:00,1566E-3,5C000000,-0724,0833,12226,025.5,045.4,0.477,732.3,01.19,0.508
2015-04-26 04:07:00,1734E-3,5C000000,-0724,0833,12013,025.5,045.4,0.477,732.3,01.19,0.508
2015-04-26 04:08:00,1802E-3,5C000000,-0724,0834,12227,025.5,045.4,0.478,732.3,01.19,0.508
2015-04-26 04:09:00,1769E-3,5C000000,-0724,0833,12217,025.5,045.4,0.477,732.2,01.19,0.508
2015-04-26 04:10:00,1744E-3,5C000000,-0724,0834,12195,025.5,045.4,0.478,732.3,01.19,0.508
2015-04-26 04:11:00,1699E-3,5C000000,-0724,0834,12058,025.5,045.4,0.477,732.3,01.19,0.508
2015-04-26 04:12:00,1816E-3,5C000000,-0724,0833,12068,025.5,045.4,0.477,732.3,01.19,0.508
2015-04-26 04:13:00,1753E-3,5C000000,-0724,0834,12128,025.5,045.4,0.478,732.3,01.19,0.508
2015-04-26 04:14:00,1782E-3,5C000000,-0724,0833,12160,025.5,045.4,0.477,732.3,01.19,0.508
2015-04-26 04:15:00,1716E-3,5C000000,-0724,0834,12334,025.6,045.4,0.477,732.3,01.19,0.508
2015-04-26 04:16:00,1836E-3,5C000000,-0724,0834,12137,025.6,045.4,0.478,732.3,01.19,0.508
2015-04-26 04:17:00,1860E-3,5C000000,-0724,0834,12161,025.6,045.4,0.477,732.3,01.19,0.508
2015-04-26 04:18:00,1736E-3,5C000000,-0724,0833,12181,025.5,045.4,0.477,732.3,01.19,0.508
2015-04-26 04:19:00,1805E-3,5C000000,-0724,0833,12231,025.6,045.4,0.478,732.3,01.19,0.508
2015-04-26 04:20:00,1772E-3,5C000000,-0724,0833,12196,025.6,045.4,0.477,732.4,01.19,0.508